This is the latest recevied weather packets stored in our database for station/object AD0YN. If no packets are shown the sender has not sent any weather packets the latest 10 day(s).
| Time | Temp. | Humidity | Pressure | Rain* | Wind** | Luminosity | Snow |
|---|---|---|---|---|---|---|---|
| 1778064213 | 7.78° C | 63% | 1015.2 hPa | 0 mm | - | 0 W/m² | - |
| 1778063910 | 7.78° C | 66% | 1014.7 hPa | 0 mm | - | 0 W/m² | - |
| 1778063608 | 7.78° C | 65% | 1014.9 hPa | 0 mm | - | 0 W/m² | - |
| 1778063305 | 7.78° C | 63% | 1014.4 hPa | 0 mm | - | 0 W/m² | - |
| 1778063003 | 8.33° C | 64% | 1014.4 hPa | 0 mm | - | 0 W/m² | - |
| 1778062700 | 8.33° C | 62% | 1014.4 hPa | 0 mm | - | 0 W/m² | - |
| 1778062395 | 8.33° C | 61% | 1014.7 hPa | 0 mm | - | 0 W/m² | - |
| 1778062094 | 8.33° C | 61% | 1014.6 hPa | 0 mm | - | 0 W/m² | - |
| 1778061792 | 8.33° C | 61% | 1014.4 hPa | 0 mm | - | 0 W/m² | - |
| 1778061490 | 8.33° C | 61% | 1014.6 hPa | 0 mm | - | 0 W/m² | - |
| 1778061186 | 8.33° C | 61% | 1014.5 hPa | 0 mm | - | 0 W/m² | - |
| 1778060884 | 8.33° C | 61% | 1014.4 hPa | 0 mm | - | 0 W/m² | - |
| 1778060582 | 8.89° C | 61% | 1014.4 hPa | 0 mm | - | 0 W/m² | - |
| 1778060280 | 8.89° C | 59% | 1015 hPa | 0 mm | - | 0 W/m² | - |
| 1778059976 | 8.89° C | 60% | 1014.6 hPa | 0 mm | - | 0 W/m² | - |
| 1778059675 | 8.89° C | 58% | 1014.7 hPa | 0 mm | - | 0 W/m² | - |
| 1778059372 | 8.89° C | 59% | 1014.6 hPa | 0 mm | - | 0 W/m² | - |
| 1778059069 | 8.89° C | 60% | 1014.5 hPa | 0 mm | - | 0 W/m² | - |
| 1778058767 | 8.33° C | 61% | 1014.4 hPa | 0 mm | - | 0 W/m² | - |
| 1778058464 | 8.33° C | 62% | 1014.4 hPa | 0 mm | - | 0 W/m² | - |
| 1778058161 | 8.89° C | 64% | 1014 hPa | 0 mm | - | 0 W/m² | - |
| 1778057858 | 8.89° C | 63% | 1013.9 hPa | 0 mm | - | 0 W/m² | - |
| 1778057554 | 8.89° C | 63% | 1013.9 hPa | 0 mm | - | 0 W/m² | - |
| 1778057251 | 8.89° C | 60% | 1013.9 hPa | 0 mm | - | 0 W/m² | - |
| 1778056947 | 8.89° C | 61% | 1013.8 hPa | 0 mm | - | 0 W/m² | - |
* Rain latest hour (hover to see other rain measurements)
** Current wind speed in m/s (hover to see current wind gust speed)